Regional Weather Roundup
Issued by NWS

Home | Current Version | Previous Version | Text Only | Print | Product List | Glossary On
Versions: 1 2 3 4 5 6 7 8 9 10 11 12 13 14 15 16 17 18 19 20 21 22 23 24 25 26 27 28 29 30 31 32 33 34 35 36 37 38 39 40 41 42 43 44 45 46 47 48 49 50
000
ASUS44 KEWX 250503
RWRTX
SOUTH TEXAS REGIONAL WEATHER ROUNDUP
NATIONAL WEATHER SERVICE AUSTIN/SAN ANTONIO TX
1200 AM CDT MON MAY 25 2015

NOTE: "FAIR" INDICATED FEW OR NO CLOUDS BELOW 12,000 FEET WITH NO
SIGNIFICANT WEATHER AND/OR OBSTRUCTIONS TO VISIBILITY.

* - THESE STATIONS ARE NOT NWS OR FAA STATIONS...AND ARE NOT SUBJECT
    TO NWS AND FAA QUALITY CONTROL.

TXZ171-172-183>190-250600-
TEXAS HILL COUNTRY AND EDWARDS PLATEAU

CITY           SKY/WX    TMP DP  RH WIND       PRES   REMARKS
JUNCTION       CLEAR     71  65  81 E3        29.90R
*LLANO         CLEAR     73  70  88 SE6       29.93R
BURNET         PTCLDY    72  68  87 MISG      29.93S
*HORSESHOE BAY PTCLDY    72  69  90 SE6       29.91S
*KERRVILLE     CLEAR     72  69  91 E7        29.92S
*FREDERICKSBRG CLEAR     69  67  92 E3        29.93S
*ROCKSPRINGS   CLEAR     70  64  83 SE8       29.94R
*BOERNE STAGE    N/A     72  70  94 SE9       29.93S
*CASTROVILLE   CLOUDY    75  73  93 SE7       29.91S
HONDO          PTCLDY    75  73  93 SE13      29.90R
*UVALDE        CLEAR     73  69  88 E7        29.87S
DEL RIO        PTCLDY    76  67  73 SE10      29.82S
LAUGHLIN AFB   NOT AVBL
CARRIZO SPRGS  HAZE      77  72  83 SE7       29.82S VSB 3/4
$$

TXZ173-191>194-202-209-217>225-228-250600-
CENTRAL AND SOUTH CENTRAL TEXAS

CITY           SKY/WX    TMP DP  RH WIND       PRES   REMARKS
GEORGETOWN     MOCLDY    73  70  88 S7        29.91S
AUSTIN/BERGSTM CLEAR     72  70  93 S10       29.91R
AUSTIN/MABRY   MOCLDY    73  69  87 VRB5      29.92S
*AUSTIN/EXEC   CLEAR     72  70  94 S6        29.92S
*LAGO VISTA    MOCLDY    73  69  89 SE10      29.93S
SAN MARCOS     CLEAR     73  68  83 S10       29.92R
NEW BRAUNFELS  CLEAR     74  70  87 S9        29.90R
RANDOLPH AFB   NOT AVBL
PT SAN ANTONIO NOT AVBL
SAN ANTONIO    CLOUDY    77  72  84 SE15      29.91R
STINSON FIELD  PTCLDY    75  72  90 SE10      29.88S
*PLEASANTON    CLEAR     75  71  86 SE10G16   29.90R
*LA GRANGE     CLEAR     74  71  90 SE5       29.92R
*GIDDINGS      CLEAR     72  68  88 S8        29.97R
*GONZALES      CLEAR     74  73  96 SE7       29.91S
$$

TXZ163>164-176>182-195>201-210>213-226-227-235-250600-
SOUTHEAST TEXAS

CITY           SKY/WX    TMP DP  RH WIND       PRES   REMARKS
COLLEGE STN    CLEAR     73  69  87 S9        29.92S
*BRYAN         PTCLDY    71  69  94 S7        29.94R
*CALDWELL      CLEAR     72  72 100 SE7       29.95S
*CROCKETT      NOT AVBL
*BRENHAM       MOCLDY    75  71  87 SE6       29.94S
HUNTSVILLE     CLEAR     73  70  90 VRB3      29.93F
CONROE         CLEAR     70  68  93 E3        29.94F
HOUSTON BUSH   PTCLDY    72  70  93 SE3       29.94S
HOUSTON HOBBY  PTCLDY    73  71  93 SE6       29.93F
*HOUSTON SW AP NOT AVBL
PEARLAND       CLEAR     74  70  87 SE7       29.95F
HOUSTON HOOKS  CLEAR     73  70  90 SE5       29.94S
ELLINGTON FLD  CLEAR     73  72  94 SE3       29.96S
SUGAR LAND     PTCLDY    73  70  90 S8        29.94S
*HOUSTON EXEC  CLOUDY    72  68  88 S7        29.95S
*CLEVELAND MUN CLEAR     68  68  99 CALM      29.96F
*WHARTON       CLEAR     71  70  96 SE6       29.95S
*COLUMBUS      FAIR      72  70  93 S7        29.93S
$$

TXZ214>216-236>238-250600-
THE UPPER TEXAS COAST

CITY           SKY/WX    TMP DP  RH WIND       PRES   REMARKS
*ORANGE        CLEAR     70  68  94 CALM      29.99S
PORT ARTHUR    CLEAR     72  70  93 S5        29.96F
GALVESTON      CLEAR     76  72  87 S13       29.96F
ANGLETON       CLEAR     71  71 100 S10       29.95R
*BAY CITY      PTCLDY    73  73  97 SE5       29.94S
PALACIOS       CLEAR     77  73  87 SE10      29.93
$$

TXZ229>234-239>247-250600-
TEXAS COASTAL BEND AND RIO GRANDE PLAINS

CITY           SKY/WX    TMP DP  RH WIND       PRES   REMARKS
VICTORIA       CLOUDY    74  73  97 SE9       29.93S
*BEEVILLE      CLEAR     73  73 100 E6        29.91S
ROCKPORT       CLEAR     79  73  82 S13       29.90S
*PORT ARANSAS  PTCLDY    79  74  85 S16       29.91S
*PORT LAVACA   CLEAR     73  72  94 SE7       29.93F
*INGLESIDE     CLEAR     80  74  82 SE13G22   29.91R
CORPUS CHRISTI CLEAR     77  73  87 SE12      29.90R
CORPUS NAS     CLEAR     78  74  87 SE14      29.91S
*ROBSTOWN      CLEAR     78  75  92 SE9       29.90R
ALICE          CLEAR     77  73  87 SE10      29.88S
KINGSVILLE NAS CLEAR     78  76  93 SE12      29.89S
COTULLA        CLEAR     79  73  82 SE18G25   29.85S
*FAITH RANCH     N/A     79  73  83 SE12G24   29.83S
LAREDO         CLEAR     79  74  84 SE14      29.86S
$$

TXZ248>255-250600-
DEEP SOUTH TEXAS

CITY           SKY/WX    TMP DP  RH WIND       PRES   REMARKS
BROWNSVILLE    CLEAR     77  73  87 SE10      29.90S
PORT ISABEL    CLEAR     78  75  90 SE12      29.90R
*SOUTH PADRE     N/A     86  86 100 SW14G20   29.91R HX 112
HARLINGEN      CLEAR     76  73  91 SE8       29.89R
*HEBBRONVILLE    N/A     77  71  82 SE12G18   29.89F
MCALLEN        CLEAR     78  72  81 SE7       29.89S
*WESLACO       CLEAR     76  71  85 SE7       29.89S
FALFURRIAS     CLEAR     76  71  83 SE5       29.89S
EDINBURG       CLEAR     77  71  80 SE7       29.90R
*ZAPATA        CLEAR     79  71  76 SE13G18   29.84S
$$

TXZ213>215-236>238-242>244-246-247-251-254-255-250600-
CMAN STATIONS

STATION/POSITION TIME  TEMP    WIND        PRES    WAVE
                       AIR SEA DIR/SP/G            HT/PER
                 (UTC) (F)     (DEG/KT/KT) (MB)    (FT/S)
$$

GMZ080-GMZ150>470-250600-
OFFSHORE BUOY REPORTS

STATION/POSITION TIME  TEMP    WIND        PRES    WAVE
                       AIR SEA DIR/SP/G            HT/PER
                 (UTC) (F)     (DEG/KT/KT) (MB)    (FT/S)
$$


USA.gov is the U.S. government's official web portal to all federal, state and local government web resources and services.